www.pogodaiklimat.ru
Время
(UTC), дата
22 16.10
23 16.10
00 17.10
01 17.10
02 17.10
03 17.10
04 17.10
05 17.10
06 17.10
07 17.10
08 17.10
09 17.10
10 17.10
11 17.10
12 17.10
13 17.10
14 17.10
15 17.10
16 17.10
17 17.10
18 17.10
19 17.10
20 17.10
21 17.10
22 17.10
23 17.10
00 18.10
01 18.10
02 18.10
03 18.10
04 18.10
05 18.10
06 18.10
07 18.10
08 18.10
09 18.10
10 18.10
11 18.10
12 18.10
13 18.10
14 18.10
15 18.10
16 18.10
17 18.10
18 18.10
19 18.10
20 18.10
21 18.10
22 18.10
23 18.10
00 19.10
01 19.10
02 19.10
03 19.10
04 19.10
05 19.10
06 19.10
07 19.10
08 19.10
09 19.10
11 19.10
12 19.10
13 19.10
14 19.10
15 19.10
16 19.10
17 19.10
18 19.10
19 19.10
20 19.10
21 19.10
22 19.10
23 19.10
00 20.10
01 20.10
02 20.10
03 20.10
04 20.10
05 20.10
06 20.10
07 20.10
08 20.10
09 20.10
10 20.10
11 20.10
12 20.10
13 20.10
14 20.10
15 20.10
16 20.10
17 20.10
18 20.10
19 20.10
20 20.10
21 20.10
22 20.10
23 20.10
00 21.10
01 21.10
02 21.10
03 21.10
04 21.10
05 21.10
06 21.10
07 21.10
08 21.10
09 21.10
10 21.10
11 21.10
12 21.10
13 21.10
14 21.10
15 21.10
16 21.10
17 21.10
18 21.10
19 21.10
20 21.10
21 21.10
22 21.10
23 21.10
00 22.10
01 22.10
02 22.10
03 22.10
04 22.10
05 22.10
06 22.10
07 22.10
08 22.10
09 22.10
10 22.10
11 22.10
12 22.10
13 22.10
14 22.10
15 22.10
16 22.10
17 22.10
18 22.10
19 22.10
20 22.10
21 22.10
22 22.10
23 22.10
00 23.10
01 23.10
02 23.10
03 23.10
04 23.10
05 23.10
06 23.10
07 23.10
08 23.10
09 23.10
10 23.10
11 23.10
12 23.10
13 23.10
14 23.10
15 23.10
16 23.10
17 23.10
18 23.10
19 23.10
20 23.10
Ветер
(напр.,м/с)
Видим. Явления Облачность Т
(С)
Тd
(С)
f
(%)
Тe
(С)
Тes
(С)
Комфортность P
(гПа)
Po
(гПа)
Тmin
(С)
Tmax
(С)
R
(мм)
R24
(мм)
S
(см)
0-26 слаб. дождь н/о 1012.2 2
0-27 слаб. дождь н/о 1011.6 0.9
0-24
{27}
слаб. дождь н/о 1011.7 5
0-28 слаб. дождь н/о 1011.8 3
0-30 слаб. дождь н/о 1012.6 4
0-27
{32}
слаб. дождь н/о 1013.2 11
0-29
{30}
слаб. дождь н/о 1012.7 6
0-33 слаб. дождь н/о 1012.7 5
0-32
{35}
слаб. дождь н/о 1013.5 14 33.5
0-35 слаб. дождь н/о 1014.6 2
0-31
{34}
слаб. дождь {морось} н/о 1015.2 2
0-28
{35}
слаб. дождь {морось} н/о 1016.7 5
0-30 в посл. час дождь со снегом н/о 1018.3 0.3
0-29 н/о 1019.5
0-26
{35}
{дождь, морось} н/о 1020.4 0.5
0-27 н/о 1021.5
0-27 н/о 1022.1 0.2
0-25
{27}
н/о 1023.1 0.2
0-25 слаб. ливневой дождь {туман} н/о 1024.2
0-25 слаб. ливневой дождь {туман} н/о 1025.9 0.1
0-27
{27}
в посл. час дождь {ливн. дождь, туман} н/о 1026.6 0.4
0 в посл. час дождь {ливн. дождь} н/о 1026.6
0-18 в посл. час дождь {ливн. дождь} н/о 1027.4 0.1
0-18
{18}
слаб. дождь н/о 1027.5 0.4
0 ливневой дождь н/о 1027.6 0.4
0 туман на расстоянии {ливн. снег} н/о 1027.8 0.3
0-18
{18}
в посл. час снег {ливн. снег, дождь} н/о 1027.0 1
0-12 н/о 1026.2
0 н/о 1026.0
0-12
{12}
н/о 1025.9
0 дымка н/о 1025.3
0 слаб. морось {туман} н/о 1023.8
0-12
{12}
ливневой дождь {морось} н/о 1023.8 0.1 7.5
0 в посл. час дождь со снегом {ливн. снег} н/о 1022.4
0 н/о 1021.2
0 {ливн. снег} н/о 1020.2 0.0
0 н/о 1018.4
0 н/о 1017.7
штиль 0 50 км {ливн. снег} ?/? -70.7 -71 -71 опасность
обморожения
1016.7
0 н/о 1014.6
0 н/о 1013.7
штиль 0 50 км ?/? +20.6 +19 +19 тепло 1012.4
0 н/о 1010.9
0 н/о 1009.2
0 н/о 1007.9
0-13 н/о 1005.6
0-16 н/о 1003.4
0-20
{20}
н/о 1001.9
штиль 0 50 км ?/? -73.4 -73 -73 опасность
обморожения
1001.5 0.3
0-30
{32}
слаб. дождь {морось} н/о 1000.9 0.2
0-29
{32}
слаб. дождь {морось} н/о 1000.8 2
0-35 слаб. дождь н/о 1001.1 2
0-35 морось {дождь} н/о 1001.9 0.7
0-28
{35}
слаб. дождь н/о 1005.1 4
0-27 слаб. дождь {морось} н/о 1008.5 0.2
0-20 {дождь} н/о 1010.7
0-35
{35}
дымка {снег, дождь} н/о 1012.4 0.2 6.1
0 н/о 1014.0
0
{19}
н/о 1014.7
0-20
{20}
н/о 1015.4
0-22
{22}
н/о 1015.4
0-22
{22}
н/о 1015.2 0.1
0-19 н/о 1014.9
штиль 0 50 км ?/? -82.5 -83 -83 опасность
обморожения
1014.3 0.1
0-19
{19}
н/о 1013.6 0.1
0-20 н/о 1013.2 0.1
0-26 ливневой дождь н/о 1011.8 0.2
0-24
{26}
слаб. дождь н/о 1011.0 0.8
0-25 слаб. дождь н/о 1009.3 1
0-24 слаб. дождь н/о 1009.4 0.8
штиль 0-23
{28}
50 км в посл. час дождь со снегом {морось} ?/? -63.3 -63 -63 опасность
обморожения
1007.6 2
0-26
{30}
н/о 1007.2 0.2
0-26 н/о 1006.5
0-21
{30}
{дождь, морось} н/о 1005.6 0.3
0-22 н/о 1003.7
0-23 н/о 1003.5 0.1
штиль 0
{24}
50 км ?/? -83.4 -83 -83 опасность
обморожения
1002.3 0.1
штиль 0-30
{30}
50 км ?/? -74.1 -74 -74 опасность
обморожения
1001.3 0.3
0-28
{29}
н/о 1001.1 0.1
0-32
{33}
морось {дождь} н/о 1000.1 1 4.4
0-30 слаб. дождь {морось} н/о 1000.2 0.4
0-27 слаб. дождь {морось} н/о 999.8 0.2
0-30
{30}
ливневой дождь н/о 999.6 1
0-24 слаб. дождь н/о 999.1 1
0-24
{26}
слаб. дождь н/о 999.2
0-26
{30}
слаб. дождь н/о 998.4 6
0-25 слаб. дождь н/о 998.4 2
0-23 переохл. дождь (гололёд) {снег} н/о 998.5 3
0-22
{25}
слаб. дождь н/о 998.7 8
0 слаб. дождь н/о 999.9 2
0 слаб. дождь н/о 1000.3 1
0-25
{25}
в посл. час снег {дождь} н/о 1000.8 3
0 н/о 1001.3 0.1
0 слаб. снег {туман} н/о 1001.9 0.1
0 в посл. час переохл. осадки (гололёд) н/о 1002.3 0.3
0 н/о 1002.4
0 в посл. час переохл. осадки (гололёд) н/о 1002.4 0.5
0-14
{14}
слаб. ливневой снег н/о 1002.8 0.7
0 в посл. час переохл. осадки (гололёд) н/о 1003.1 0.1
0 н/о 1003.2
0 в посл. час переохл. осадки (гололёд) н/о 1003.2 0.2
0 слаб. ливневой снег н/о 1003.1 0.1
штиль 0 50 км в посл. час переохл. осадки (гололёд) ?/? -60.4 -60 -60 опасность
обморожения
1003.0
0 слаб. ливневой снег н/о 1003.2 0.3 19.7
штиль 0 50 км слаб. снег ?/? -10.6 -11 -11 по сезону 1002.8 0.2
штиль 0 50 км {снег} ?/? -0.1 +1 +1 тепло 1002.4
штиль 0 50 км {ливн. снег, снег} ?/? -30.2 -30 -30 очень
холодно
1002.0 0.2
штиль 0 50 км ?/? 0.0 +1 +1 тепло 1001.6
0 н/о 1001.4
0 снег {ливн. снег} н/о 1001.2 1
штиль 0 50 км в посл. час переохл. осадки (гололёд) ?/? -20.6 -21 -21 холодно 1000.7 0.1
штиль 0 50 км ?/? +1 +1 тепло 1000.4
СВ 2 45 км {снег} н/о -0.2 -2.7 83 -4 -4 по сезону 1010.6 1000.1 0.1
С 3 13 км слаб. снег {осадки} 6/6 210 м -0.4 -2.9 83 -5 -4 тепло 1010.2 999.7
С 3 45 км в посл. час снег {ливн. снег} 1/1 1320 м -0.4 -3.2 81 -5 -4 тепло 1010.1 999.5
С 5 50 км {ливн. снег, снег} 1/1 1350 м -0.2 -3.6 78 -6 -6 по сезону 1009.9 999.4 -0.7 +11.6 0.0
С 3 50 км 4/4 330 м -0.6 -2.8 85 -5 -5 тепло 1009.9 999.4
50 км в посл. час осадки {ливн. снег} 9/9 150 м -0.8 -1.8 93 1009.7 999.2
СВ 5 50 км слаб. ливневой дождь 9/9 120 м -0.8 -2.7 87 -7 -7 по сезону 1010.1 999.6 0.0
С 3 50 км {ливн. снег} 9/9 240 м -0.6 -2.7 86 -5 -5 тепло 1010.1 999.6
С 3 50 км 9/9 1380 м -0.8 -2.5 88 -6 -6 тепло 1010.1 999.5
С 4 50 км {ливн. снег, снег} 9/9 1380 м -0.6 -2.3 88 -6 -6 по сезону 1010.3 999.8 0.0
СЗ 6 50 км 6/6 360 м -1.3 -2.2 94 -8 -8 по сезону 1010.7 1000.1
С 3 50 км 1/1 150 м -1.2 -2.6 90 -6 -6 тепло 1010.5 999.9
С 5 50 км 6/6 1140 м -1.3 -2.9 89 -8 -8 по сезону 1010.5 1000.0
С 4 50 км 4/4 1380 м -1.4 -3.1 88 -7 -7 тепло 1010.5 999.9
С 4 50 км 1/1 1500 м -1.2 -2.6 90 -7 -7 тепло 1010.7 1000.1
С 3 35 км слаб. снег {осадки} 6/6 240 м -1.0 -2.3 91 -6 -6 по сезону 1010.8 1000.2 -1.6 -0.2 0.0 1.4
СВ 3 30 км слаб. ливневой снег 1/1 240 м -1.2 -4.0 81 -6 -6 тепло 1010.7 1000.1
СВ 2 50 км в посл. час снег {ливн. снег} 1/1 450 м -1.5 -4.8 78 -5 -5 тепло 1010.9 1000.3
СВ 4 50 км {ливн. снег, снег} ясно -1.6 -4.9 78 -7 -7 по сезону 1010.7 1000.1 0.0
СВ 3 50 км 1/1 1350 м -2.0 -5.2 79 -7 -7 тепло 1010.5 999.9
СВ 6 50 км ясно -2.1 -5.5 77 -9 -9 тепло 1010.4 999.8
В 6 50 км {ливн. снег, снег} ясно -2.1 -5.8 76 -9 -9 по сезону 1010.3 999.7
СВ 4 50 км ясно -1.8 -6.6 70 -7 -7 тепло 1010.1 999.5
СВ 4 50 км ясно -1.7 -6.7 69 -7 -7 тепло 1009.7 999.1
СВ 4 50 км ясно -1.9 -6.8 69 -7 -6 по сезону 1009.3 998.8
СВ 5 50 км ясно -1.7 -6.5 70 -8 -7 по сезону 1008.6 998.1
СВ 4 50 км ясно -1.9 -6.9 69 -8 -7 тепло 1008.4 997.9
СВ 5 50 км ясно -2.0 -7.2 68 -8 -8 по сезону 1008.1 997.6 -2.2 -1.0
С 6 50 км ясно -2.4 -6.3 75 -10 -10 по сезону 1007.9 997.3
С 7 50 км ясно -2.8 -5.4 82 -11 -11 тепло 1007.7 997.1
С 7 50 км ясно -2.8 -6.3 77 -10 -10 прохладно 1007.1 996.5
С 9 50 км ясно -2.7 -6.1 77 -11 -11 по сезону 1006.4 995.8
С 10 50 км ясно -2.6 -6.7 73 -11 -11 тепло 1005.6 995.0
С 9 50 км ясно -2.8 -6.5 76 -11 -11 прохладно 1005.2 994.7
С 9 50 км ясно -2.8 -6.7 74 -11 -11 по сезону 1004.5 993.9
С 11 50 км ясно -2.8 -6.6 75 -12 -12 тепло 1003.6 993.0
С 10 50 км ясно -3.3 -6.8 77 -12 -12 прохладно 1003.1 992.5
С 10 50 км ясно -3.1 -6.9 75 -12 -12 по сезону 1002.6 992.0
50 км ясно -2.7 -7.6 69 1002.3 991.8
С 9 50 км ясно -2.6 -7.3 70 -11 -11 прохладно 1002.0 991.5 -3.5 -1.8
50 км ясно -2.6 -8.2 65 1001.9 991.4
С 9 50 км ясно -2.5 -8.1 65 -11 -11 тепло 1001.6 991.1
С 8 50 км ясно -2.3 -8.2 64 -10 -10 прохладно 1001.2 990.7
С 9 50 км ясно -2.3 -8.0 65 -10 -10 по сезону 1001.2 990.6
С 9 50 км ясно -2.5 -8.3 64 -11 -11 тепло 1001.2 990.7
С 7 50 км ясно -2.3 -8.0 65 -10 -10 прохладно 1001.3 990.8
С 8 50 км ясно -2.1 -7.3 68 -10 -10 по сезону 1001.0 990.5
С 7 50 км ясно -1.8 -7.9 63 -9 -9 тепло 1001.2 990.7
С 7 50 км ясно -1.7 -6.6 69 -9 -8 по сезону 1001.2 990.7
С 6 50 км 1/0 -1.6 -6.9 67 -8 -8 по сезону 1001.3 990.8
С 5 50 км ясно -1.4 -7.2 65 -7 -7 тепло 1001.5 991.1
С 5 50 км ясно -1.2 -6.4 68 -7 -7 по сезону 1002.0 991.5 -2.7 -1.2
С 5 50 км ясно -1.0 -6.3 67 -7 -7 по сезону 1002.5 992.0
С 4 50 км ясно -1.2 -6.2 69 -7 -7 тепло 1003.0 992.5
Местоположение метеостанции Nuuk (Гренландия): широта 64.17 долгота -51.75 высота над уровнем моря 84 м.
В архиве по умолчанию представлена погода в Nuuk за последнюю неделю. Архивные данные за месяц целиком и за предыдущие месяцы, начиная с января 2011 года, Вы можете получить, выбрав интересующий диапазон дат из раскрывающегося списка и нажав кнопку "Найти!".
*Определитесь, кто Вы:
Внимание! Время в таблицах - всемирное. Для получения местного времени необходимо прибавить поправку, которая равна -3 ч.
Смотрите также архив погоды в соседних городах и на ближайших метеорологических станциях:
Партнеры нашего сайта:      
Пояснения к столбцам:
  • Ветер - указаны скорость ветра в м/с - средняя за 10 мин, порывы в срок и между сроками (в фигурных скобках) и направление, откуда дует ветер: С - северный,
  • СВ - северо-восточный, В - восточный, ЮВ - юго-восточный, Ю - южный, ЮЗ - юго-западный, З - западный, СЗ - северо-западный.
  • Видимость - горизонтальная дальность видимости в метрах или километрах. При видимости от 1 до 10 км при отсутствии осадков обычно наблюдается дымка, при ухудшении видимости до 1 км и менее - туман. В сухую погоду видимость может ухудшаться дымом, пылью или мглою.
  • Явления - указаны атмосферные явления, наблюдавшиеся в срок или в последний час перед сроком; фигурными скобками обозначены явления, наблюдавшиеся между сроками (за 1-3 часа до срока); квадратными скобками обозначены град или гололедные отложения с указанием их диаметра в мм.
  • Облачность - указаны через наклонную черту общая и нижняя облачность в баллах и высота нижней границы облаков в метрах; квадратными скобками обозначены формы облаков: Ci - перистые, Cs - перисто-слоистые, Cc - перисто-кучевые, Ac - высококучевые, As - высокослоистые, Sc - слоисто-кучевые, Ns - слоисто-дождевые, Cu - кучевые, Cb - кучево-дождевые. Подробнее классификацию облаков см. в Атласе облаков (PDF).
  • T - Температура воздуха - температура, измеренная на высоте 2 м над землей.
  • Td - Температура точки росы - температура, при понижении до которой содержащийся в воздухе водяной пар достигнет насыщения.
  • f - Относительная влажность воздуха - влажноcть воздуха, измеренная на высоте 2 м над землей.
  • Te - Эффективная температура - температура, которую ощущает одетый по сезону человек в тени. Характеристика душности погоды. При расчете учитывается влияние влажности воздуха и скорости ветра на теплоощущения человека.
  • Tes - Эффективная температура на солнце - температура, которую ощущает человек, с поправкой на солнечный нагрев. Характеристика знойности погоды. Зависит от высоты солнца над горизонтом, облачности и скорости ветра. Ночью, в пасмурную погоду, а также при ветре 12 м/с и более поправка равна нулю.
  • P - Атмосферное давление - приведенное к уровню моря атмосферное давление.
  • Po - Атмосферное давление - измеренное на уровне метеостанции атмосферное давление.
  • Tmin - Минимальная температура - минимум температуры воздуха на высоте 2 м над землей.
  • Tmax - Максимальная температура - максимум температуры воздуха на высоте 2 м над землей.
  • R - Количество осадков - Количество выпавших осадков за период времени, мм. При наведении курсора мыши на число - период времени, за который выпало указанное количество осадков.
  • R24 - Количество осадков - Количество выпавших осадков за 24 часа, мм.
  • S - Снежный покров - Высота снежного покрова, см. При наведении курсора мыши на число - состояние снежного покрова и степень покрытия местности в баллах.